Weather History for Kamloops, BC

Change the Weather History Date:

Saturday, March 8, 2014

  Actual Average Record
Temperature  
Mean Temperature 38 °F -  
Max Temperature 47 °F 43 °F 55 °F (2004)
Min Temperature 29 °F 26 °F 6 °F (2003)
Degree Days  
Heating Degree Days 27    
Moisture  
Dew Point 34 °F    
Average Humidity 73    
Maximum Humidity 87    
Minimum Humidity 55    
Precipitation  
Precipitation 0.00 in - - ()
Sea Level Pressure  
Sea Level Pressure 29.87 in    
Wind  
Wind Speed 14 mph ()    
Max Wind Speed 25 mph    
Max Gust Speed 34 mph    
Averages and records for this station are not official NWS values.
T = Trace of Precipitation, MM = Missing Value Source: Averaged Metar Reports

Daily Weather History Graph

Daily Weather History Graph

Search for Another Location

Airport:

Trip Planner

Search our weather history database for the weather conditions in past years. The results will help you decide how hot, cold, wet, or windy it might be!

Date:

Astronomy

Mar. 08, 2014 Rise Set
Actual Time 6:30 AM PST 5:55 PM PST
Civil Twilight 5:57 AM PST 6:27 PM PST
Nautical Twilight 5:20 AM PST 7:06 PM PST
Astronomical Twilight 4:41 AM PST 7:44 PM PST
Moon 10:36 AM PST (3/8) 1:36 AM PST (3/8)
Length of Visible Light 12h 30m
Length of Day
11h 24m
First Quarter, 53% of the Moon is Illuminated
Mar 8
First Quarter
Mar 16
Full
Mar 23
Last Quarter
Mar 30
New
Apr 7
First Quarter

Hourly Weather History & Observations

Time (PST) Temp. Windchill Dew Point Humidity Pressure Visibility Wind Dir Wind Speed Gust Speed Precip Events Conditions
12:00 AM 39.2 °F 32.5 °F 33.8 °F 81% 30.09 in 40.0 mi ENE 10.4 mph - N/A   Mostly Cloudy
1:00 AM 39.2 °F 30.2 °F 33.8 °F 81% 30.09 in 40.0 mi East 17.3 mph - N/A   Mostly Cloudy
2:00 AM 39.2 °F 30.2 °F 33.8 °F 81% 30.07 in 40.0 mi East 17.3 mph - N/A   Overcast
3:00 AM 39.2 °F 30.5 °F 32.0 °F 75% 30.03 in 40.0 mi East 16.1 mph - N/A   Overcast
4:00 AM 39 °F - 32 °F 69% 30.03 in 37 mi ENE 13.8 mph - -   Overcast
4:00 AM 39.2 °F 31.2 °F 32.0 °F 75% 30.03 in 40.0 mi ENE 13.8 mph - N/A   Overcast
5:00 AM 37.4 °F 27.5 °F 33.8 °F 87% 30.02 in 40.0 mi East 18.4 mph - N/A   Overcast
6:00 AM 37.4 °F 26.9 °F 33.8 °F 87% 30.01 in 40.0 mi NE 20.7 mph - N/A   Overcast
7:00 AM 37.4 °F 27.8 °F 33.8 °F 87% 30.01 in 40.0 mi ENE 17.3 mph - N/A   Overcast
8:00 AM 37.4 °F 27.8 °F 33.8 °F 87% 30.00 in 40.0 mi ENE 17.3 mph - N/A   Overcast
9:00 AM 39.2 °F 30.8 °F 33.8 °F 81% 29.96 in 40.0 mi ENE 15.0 mph - N/A   Overcast
10:00 AM 40 °F - 34 °F 72% 29.94 in 37 mi Calm Calm - -   Overcast
10:00 AM 41.0 °F 33.9 °F 33.8 °F 76% 29.94 in 40.0 mi ENE 12.7 mph - N/A   Overcast
11:00 AM 42.8 °F 35.4 °F 33.8 °F 70% 29.92 in 40.0 mi ENE 15.0 mph 21.9 mph N/A   Overcast
12:00 PM 48.2 °F - 35.6 °F 62% 29.89 in 40.0 mi East 21.9 mph - N/A   Overcast
1:00 PM 46.4 °F 39.2 °F 33.8 °F 62% 29.85 in 40.0 mi ESE 18.4 mph - N/A   Overcast
2:00 PM 46.4 °F 40.7 °F 33.8 °F 62% 29.82 in 40.0 mi East 12.7 mph - N/A   Overcast
3:00 PM 46.4 °F 41.5 °F 33.8 °F 62% 29.78 in 40.0 mi East 10.4 mph - N/A   Overcast
4:00 PM 45 °F - 34 °F 55% 29.75 in 37 mi East 12.7 mph - -   Overcast
4:00 PM 44.6 °F 38.8 °F 33.8 °F 66% 29.75 in 40.0 mi East 11.5 mph - N/A   Overcast
5:00 PM 44.6 °F 38.4 °F 33.8 °F 66% 29.71 in 40.0 mi East 12.7 mph - N/A   Overcast
6:00 PM 44.6 °F 38.1 °F 33.8 °F 66% 29.70 in 40.0 mi East 13.8 mph - N/A   Overcast
7:00 PM 46.4 °F 38.5 °F 35.6 °F 66% 29.69 in 40.0 mi ESE 21.9 mph - N/A   Overcast
8:00 PM 44.6 °F 35.9 °F 35.6 °F 71% 29.68 in 40.0 mi ESE 23.0 mph - N/A   Overcast
9:00 PM 44.6 °F 35.7 °F 35.6 °F 71% 29.67 in 40.0 mi ESE 24.2 mph - N/A   Overcast
10:00 PM 44 °F - 37 °F 68% 29.65 in 37 mi ESE 25.3 mph - -   Overcast
10:00 PM 42.8 °F 33.3 °F 37.4 °F 81% 29.65 in 40.0 mi ESE 24.2 mph 34.5 mph N/A   Overcast
11:00 PM 41.0 °F 31.9 °F 37.4 °F 87% 29.66 in 40.0 mi East 19.6 mph 26.5 mph N/A   Overcast